TimeCDT,TemperatureF,Dew PointF,Humidity,Sea Level PressureIn,VisibilityMPH,Wind Direction,Wind SpeedMPH,Gust SpeedMPH,PrecipitationIn,Events,Conditions,WindDirDegrees,DateUTC
12:35 AM,-9999,-9999,N/A,29.93,10.0,SW,4.6,-,N/A,,Overcast,220,2013-03-31 05:35:00
12:55 AM,-9999,-9999,N/A,29.93,9.0,SSW,5.8,-,N/A,,Overcast,210,2013-03-31 05:55:00
1:15 AM,-9999,-9999,N/A,29.92,9.0,SW,4.6,-,N/A,,Overcast,220,2013-03-31 06:15:00
1:35 AM,-9999,-9999,N/A,29.92,9.0,SSW,5.8,-,N/A,,Overcast,210,2013-03-31 06:35:00
1:55 AM,-9999,-9999,N/A,29.92,10.0,SW,6.9,-,N/A,,Overcast,220,2013-03-31 06:55:00
2:15 AM,-9999,-9999,N/A,29.91,10.0,SSW,8.1,-,N/A,,Overcast,210,2013-03-31 07:15:00
2:35 AM,-9999,-9999,N/A,29.90,10.0,SW,5.8,-,N/A,,Scattered Clouds,230,2013-03-31 07:35:00
2:55 AM,-9999,-9999,N/A,29.91,10.0,WSW,8.1,-,N/A,,Mostly Cloudy,250,2013-03-31 07:55:00
3:15 AM,-9999,-9999,N/A,29.91,10.0,WSW,4.6,-,N/A,,Overcast,250,2013-03-31 08:15:00
3:35 AM,-9999,-9999,N/A,29.90,10.0,WSW,5.8,-,N/A,,Overcast,240,2013-03-31 08:35:00
3:55 AM,-9999,-9999,N/A,29.89,10.0,SW,6.9,-,N/A,,Overcast,230,2013-03-31 08:55:00
4:15 AM,-9999,-9999,N/A,29.89,10.0,SW,4.6,-,N/A,,Overcast,220,2013-03-31 09:15:00
4:35 AM,-9999,-9999,N/A,29.89,10.0,SW,4.6,-,N/A,,Overcast,220,2013-03-31 09:35:00
4:55 AM,-9999,-9999,N/A,29.89,10.0,SW,4.6,-,N/A,,Overcast,220,2013-03-31 09:55:00
5:15 AM,-9999,-9999,N/A,29.89,10.0,SW,3.5,-,N/A,,Overcast,230,2013-03-31 10:15:00
5:35 AM,-9999,-9999,N/A,29.90,10.0,SW,3.5,-,N/A,,Overcast,220,2013-03-31 10:35:00
5:55 AM,-9999,-9999,N/A,29.90,7.0,SSW,5.8,-,N/A,,Overcast,200,2013-03-31 10:55:00
6:15 AM,-9999,-9999,N/A,29.91,10.0,South,3.5,-,N/A,,Overcast,190,2013-03-31 11:15:00
6:35 AM,-9999,-9999,N/A,29.91,10.0,SW,3.5,-,N/A,,Overcast,220,2013-03-31 11:35:00
6:55 AM,-9999,-9999,N/A,29.92,10.0,SW,4.6,-,N/A,,Overcast,220,2013-03-31 11:55:00
7:15 AM,-9999,-9999,N/A,29.91,10.0,SSW,4.6,-,N/A,,Overcast,210,2013-03-31 12:15:00
7:35 AM,-9999,-9999,N/A,29.92,10.0,SW,4.6,-,N/A,,Overcast,220,2013-03-31 12:35:00
7:55 AM,-9999,-9999,N/A,29.92,9.0,SSW,3.5,-,N/A,,Overcast,210,2013-03-31 12:55:00
8:15 AM,-9999,-9999,N/A,29.92,10.0,SW,5.8,-,N/A,,Overcast,220,2013-03-31 13:15:00
8:35 AM,-9999,-9999,N/A,29.91,9.0,SSW,4.6,-,N/A,,Overcast,210,2013-03-31 13:35:00
8:55 AM,-9999,-9999,N/A,29.91,7.0,SW,3.5,-,N/A,,Overcast,230,2013-03-31 13:55:00
9:15 AM,-9999,-9999,N/A,29.91,5.0,SW,3.5,-,N/A,,Overcast,230,2013-03-31 14:15:00
9:35 AM,-9999,-9999,N/A,29.92,5.0,SW,3.5,-,N/A,,Overcast,230,2013-03-31 14:35:00
9:55 AM,-9999,-9999,N/A,29.91,4.0,SSW,4.6,-,N/A,,Overcast,210,2013-03-31 14:55:00
10:15 AM,-9999,-9999,N/A,29.91,5.0,SW,4.6,-,N/A,,Overcast,220,2013-03-31 15:15:00
10:35 AM,-9999,-9999,N/A,29.91,4.0,South,3.5,-,N/A,,Overcast,190,2013-03-31 15:35:00
10:55 AM,-9999,-9999,N/A,29.91,10.0,SSW,3.5,-,N/A,,Mostly Cloudy,200,2013-03-31 15:55:00
11:15 AM,60.8,60.8,100,29.91,10.0,SW,5.8,-,N/A,,Mostly Cloudy,230,2013-03-31 16:15:00
11:35 AM,60.8,60.8,100,29.90,10.0,Calm,Calm,-,N/A,,Overcast,0,2013-03-31 16:35:00
11:55 AM,60.8,60.8,100,29.91,10.0,SW,8.1,-,N/A,,Overcast,220,2013-03-31 16:55:00
12:15 PM,60.8,60.8,100,29.91,10.0,SW,5.8,-,N/A,,Overcast,230,2013-03-31 17:15:00
12:35 PM,62.6,62.6,100,29.90,10.0,WSW,6.9,-,N/A,,Overcast,250,2013-03-31 17:35:00
12:55 PM,62.6,62.6,100,29.90,10.0,WNW,8.1,-,N/A,,Overcast,290,2013-03-31 17:55:00
1:15 PM,62.6,62.6,100,29.90,10.0,NW,5.8,-,N/A,,Overcast,320,2013-03-31 18:15:00
1:35 PM,60.8,60.8,100,29.90,10.0,NW,6.9,-,N/A,,Overcast,310,2013-03-31 18:35:00
1:55 PM,59.0,59.0,100,29.89,4.0,North,4.6,-,N/A,,Overcast,350,2013-03-31 18:55:00
2:15 PM,57.2,57.2,100,29.91,5.0,North,8.1,-,N/A,,Overcast,350,2013-03-31 19:15:00
2:35 PM,-9999,-9999,N/A,29.91,9.0,North,9.2,-,N/A,,Overcast,350,2013-03-31 19:35:00
2:55 PM,55.4,55.4,100,29.89,10.0,NNE,6.9,-,N/A,,Overcast,20,2013-03-31 19:55:00
3:15 PM,55.4,55.4,100,29.88,10.0,NE,5.8,-,N/A,,Overcast,50,2013-03-31 20:15:00
3:35 PM,57.2,57.2,100,29.88,10.0,ENE,4.6,-,N/A,,Mostly Cloudy,60,2013-03-31 20:35:00
3:55 PM,55.4,55.4,100,29.88,10.0,East,3.5,-,N/A,,Mostly Cloudy,80,2013-03-31 20:55:00
4:15 PM,57.2,57.2,100,29.87,10.0,Calm,Calm,-,N/A,,Mostly Cloudy,0,2013-03-31 21:15:00
4:35 PM,57.2,57.2,100,29.87,10.0,East,3.5,-,N/A,,Scattered Clouds,100,2013-03-31 21:35:00
4:55 PM,57.2,57.2,100,29.87,10.0,Calm,Calm,-,N/A,,Scattered Clouds,0,2013-03-31 21:55:00
5:15 PM,57.2,57.2,100,29.87,10.0,Calm,Calm,-,N/A,,Mostly Cloudy,0,2013-03-31 22:15:00
5:35 PM,57.2,57.2,100,29.87,10.0,Calm,Calm,-,N/A,,Mostly Cloudy,0,2013-03-31 22:35:00
5:55 PM,57.2,57.2,100,29.88,10.0,Calm,Calm,-,N/A,,Mostly Cloudy,0,2013-03-31 22:55:00
6:15 PM,57.2,57.2,100,29.88,10.0,NNW,3.5,-,N/A,,Overcast,340,2013-03-31 23:15:00
6:35 PM,57.2,57.2,100,29.88,10.0,Calm,Calm,-,N/A,,Overcast,0,2013-03-31 23:35:00
6:55 PM,57.2,57.2,100,29.89,10.0,Calm,Calm,-,N/A,,Mostly Cloudy,0,2013-03-31 23:55:00
7:15 PM,55.4,55.4,100,29.88,10.0,Calm,Calm,-,N/A,,Partly Cloudy,0,2013-04-01 00:15:00
7:35 PM,53.6,53.6,100,29.89,10.0,Calm,Calm,-,N/A,,Clear,0,2013-04-01 00:35:00
7:55 PM,53.6,53.6,100,29.90,10.0,Calm,Calm,-,N/A,,Scattered Clouds,0,2013-04-01 00:55:00
8:15 PM,53.6,53.6,100,29.90,10.0,North,3.5,-,N/A,,Overcast,350,2013-04-01 01:15:00
8:35 PM,53.6,53.6,100,29.90,10.0,Calm,Calm,-,N/A,,Mostly Cloudy,0,2013-04-01 01:35:00
8:55 PM,50.0,50.0,100,29.90,10.0,Calm,Calm,-,N/A,,Scattered Clouds,0,2013-04-01 01:55:00
9:15 PM,48.2,48.2,100,29.91,10.0,Calm,Calm,-,N/A,,Partly Cloudy,0,2013-04-01 02:15:00
9:35 PM,-9999,-9999,N/A,29.92,10.0,Calm,Calm,-,N/A,,Clear,0,2013-04-01 02:35:00
9:55 PM,-9999,-9999,N/A,29.92,10.0,Calm,Calm,-,N/A,,Clear,0,2013-04-01 02:55:00
10:15 PM,-9999,-9999,N/A,29.92,9.0,Calm,Calm,-,N/A,,Clear,0,2013-04-01 03:15:00
10:35 PM,-9999,-9999,N/A,29.92,8.0,SSE,4.6,-,N/A,,Clear,150,2013-04-01 03:35:00
10:55 PM,-9999,-9999,N/A,29.92,0.8,Calm,Calm,-,N/A,,Mostly Cloudy,0,2013-04-01 03:55:00
11:15 PM,-9999,-9999,N/A,29.92,0.2,Calm,Calm,-,N/A,,Overcast,0,2013-04-01 04:15:00
11:35 PM,-9999,-9999,N/A,29.92,0.2,Calm,Calm,-,N/A,,Overcast,0,2013-04-01 04:35:00